Weather History for Charlevoix, MI

Change the Weather History Date:

Friday, January 10, 2014

  Actual Average Record
Temperature  
Mean Temperature 24 °F -  
Max Temperature 34 °F 34 °F 42 °F (2002)
Min Temperature 15 °F 21 °F 0 °F (2004)
Degree Days  
Heating Degree Days 41    
Moisture  
Dew Point 25 °F    
Average Humidity 92    
Maximum Humidity 99    
Minimum Humidity 74    
Precipitation  
Precipitation 0.00 in - - ()
Sea Level Pressure  
Sea Level Pressure 29.93 in    
Wind  
Wind Speed 7 mph (SE)    
Max Wind Speed 10 mph    
Max Gust Speed -    
Visibility 5 miles    
Events Rain    
Averages and records for this station are not official NWS values.
T = Trace of Precipitation, MM = Missing Value Source: NWS Daily Summary

Daily Weather History Graph

Daily Weather History Graph

Search for Another Location

Airport:

Trip Planner

Search our weather history database for the weather conditions in past years. The results will help you decide how hot, cold, wet, or windy it might be!

Date:

Astronomy

Jan. 10, 2014 Rise Set
Actual Time 8:19 AM EST 5:18 PM EST
Civil Twilight 7:45 AM EST 5:52 PM EST
Nautical Twilight 7:08 AM EST 6:28 PM EST
Astronomical Twilight 6:33 AM EST 7:04 PM EST
Moon 1:26 PM EST (1/10) 3:21 AM EST (1/10)
Length of Visible Light 10h 06m
Length of Day
8h 59m
Waxing Gibbous, 75% of the Moon is Illuminated
Jan 10
Waxing Gibbous
Jan 15
Full
Jan 24
Last Quarter
Jan 30
New
Feb 6
First Quarter

Hourly Weather History & Observations

Time (EST) Temp. Windchill Dew Point Humidity Pressure Visibility Wind Dir Wind Speed Gust Speed Precip Events Conditions
12:15 AM 16.3 °F 7.8 °F 9.3 °F 74% 30.21 in 10.0 mi South 5.8 mph - N/A   Overcast
12:30 AM 15.6 °F 5.9 °F 9.1 °F 76% 30.21 in 10.0 mi South 6.9 mph - N/A   Mostly Cloudy
3:02 AM 19.8 °F 9.9 °F 14.9 °F 81% 30.14 in 10.0 mi SSE 8.1 mph - N/A   Overcast
3:15 AM 19.9 °F 10.1 °F 15.3 °F 82% 30.14 in 10.0 mi South 8.1 mph - N/A   Overcast
3:35 AM 20.3 °F 10.6 °F 15.8 °F 83% 30.14 in 10.0 mi SSE 8.1 mph - N/A   Overcast
3:55 AM 20.7 °F 11.0 °F 16.2 °F 83% 30.13 in 10.0 mi South 8.1 mph - N/A   Overcast
4:15 AM 21.0 °F 10.6 °F 16.7 °F 83% 30.12 in 10.0 mi SSE 9.2 mph - N/A   Overcast
4:34 AM 21.2 °F 10.9 °F 16.9 °F 83% 30.12 in 10.0 mi SSE 9.2 mph - N/A   Overcast
4:55 AM 21.2 °F 12.6 °F 17.2 °F 85% 30.10 in 10.0 mi SSE 6.9 mph - N/A   Overcast
5:15 AM 21.4 °F 11.9 °F 17.4 °F 85% 30.10 in 10.0 mi SSE 8.1 mph - N/A   Overcast
5:34 AM 21.7 °F 13.2 °F 17.6 °F 84% 30.09 in 10.0 mi SSE 6.9 mph - N/A   Overcast
5:55 AM 21.9 °F 13.4 °F 18.0 °F 85% 30.09 in 10.0 mi SSE 6.9 mph - N/A   Overcast
6:15 AM 21.9 °F 13.4 °F 18.0 °F 85% 30.09 in 10.0 mi SSE 6.9 mph - N/A   Overcast
6:34 AM 22.1 °F 14.7 °F 18.3 °F 85% 30.09 in 7.0 mi SSE 5.8 mph - N/A   Overcast
6:55 AM 22.5 °F 15.1 °F 18.9 °F 86% 30.08 in 7.0 mi SSE 5.8 mph - N/A   Overcast
7:15 AM 22.8 °F 13.6 °F 19.6 °F 87% 30.08 in 7.0 mi SSE 8.1 mph - N/A   Overcast
7:35 AM 23.0 °F 15.8 °F 20.3 °F 89% 30.08 in 5.0 mi SSE 5.8 mph - N/A   Overcast
7:55 AM 23.0 °F 15.8 °F 21.0 °F 92% 30.08 in 5.0 mi SSE 5.8 mph - N/A   Overcast
8:15 AM 23.5 °F 16.4 °F 22.3 °F 95% 30.08 in 3.0 mi South 5.8 mph - N/A   Overcast
8:35 AM 23.7 °F 15.6 °F 22.6 °F 96% 30.07 in 2.0 mi SSE 6.9 mph - N/A   Overcast
8:55 AM 24.3 °F 15.4 °F 23.4 °F 96% 30.07 in 1.8 mi SSE 8.1 mph - N/A   Overcast
9:14 AM 24.4 °F 15.6 °F 23.7 °F 97% 30.07 in 1.5 mi SSE 8.1 mph - N/A   Overcast
9:35 AM 24.8 °F 16.1 °F 24.3 °F 98% 30.06 in 1.5 mi SSE 8.1 mph - N/A   Overcast
9:55 AM 24.8 °F 16.9 °F 24.3 °F 98% 30.05 in 1.5 mi SE 6.9 mph - N/A   Overcast
10:14 AM 25.7 °F 18.0 °F 25.0 °F 97% 30.05 in 1.5 mi SSE 6.9 mph - N/A   Overcast
10:35 AM 25.9 °F 16.6 °F 25.2 °F 97% 30.05 in 1.8 mi SSE 9.2 mph - N/A   Overcast
10:54 AM 26.2 °F 17.8 °F 25.5 °F 97% 30.05 in 1.8 mi SSE 8.1 mph - N/A   Overcast
11:15 AM 26.6 °F 18.2 °F 25.7 °F 96% 30.05 in 2.0 mi SSE 8.1 mph - N/A   Overcast
11:35 AM 27.0 °F 17.3 °F 26.1 °F 96% 30.04 in 2.0 mi SSE 10.4 mph - N/A   Overcast
11:54 AM 27.5 °F 19.3 °F 26.4 °F 96% 30.02 in 2.0 mi SSE 8.1 mph - N/A   Overcast
12:15 PM 27.5 °F 19.3 °F 26.6 °F 96% 30.01 in 2.0 mi SSE 8.1 mph - N/A   Overcast
12:35 PM 27.9 °F 20.6 °F 26.6 °F 95% 30.00 in 2.0 mi South 6.9 mph - N/A   Overcast
12:55 PM 28.2 °F 20.2 °F 27.1 °F 96% 29.98 in 2.0 mi SE 8.1 mph - N/A   Overcast
1:15 PM 28.4 °F 21.2 °F 27.3 °F 96% 29.96 in 2.5 mi SSE 6.9 mph - N/A   Overcast
1:34 PM 28.9 °F 21.1 °F 27.5 °F 94% 29.95 in 2.5 mi SSE 8.1 mph - N/A   Overcast
1:55 PM 29.3 °F 22.3 °F 27.5 °F 93% 29.94 in 3.0 mi SSE 6.9 mph - N/A   Overcast
2:15 PM 29.5 °F 21.8 °F 28.0 °F 94% 29.92 in 2.5 mi SSE 8.1 mph - N/A   Overcast
2:34 PM 29.8 °F 23.0 °F 28.4 °F 94% 29.91 in 2.0 mi SSE 6.9 mph - N/A   Overcast
2:55 PM 30.2 °F 23.4 °F 28.9 °F 95% 29.91 in 3.0 mi SSE 6.9 mph - N/A   Overcast
3:15 PM 30.7 °F 24.1 °F 29.1 °F 94% 29.91 in 4.0 mi SSE 6.9 mph - N/A   Overcast
3:34 PM 30.7 °F 22.6 °F 28.9 °F 93% 29.90 in 4.0 mi South 9.2 mph - N/A   Overcast
3:55 PM 30.7 °F 23.3 °F 28.8 °F 92% 29.89 in 4.0 mi SSE 8.1 mph - N/A   Overcast
4:15 PM 30.6 °F 22.4 °F 28.4 °F 92% 29.89 in 5.0 mi SE 9.2 mph - N/A   Overcast
4:35 PM 30.7 °F 22.0 °F 28.4 °F 91% 29.90 in 5.0 mi SE 10.4 mph - N/A   Overcast
4:55 PM 30.7 °F 24.1 °F 28.4 °F 91% 29.88 in 5.0 mi SE 6.9 mph - N/A   Overcast
5:14 PM 30.7 °F 24.1 °F 28.8 °F 92% 29.87 in 4.0 mi SE 6.9 mph - N/A   Overcast
5:35 PM 30.7 °F 23.3 °F 28.9 °F 93% 29.85 in 4.0 mi ESE 8.1 mph - N/A   Overcast
5:55 PM 30.7 °F 24.1 °F 28.9 °F 93% 29.85 in 7.0 mi SE 6.9 mph - N/A   Overcast
6:15 PM 30.6 °F 23.1 °F 28.4 °F 92% 29.83 in 7.0 mi SE 8.1 mph - N/A   Overcast
6:35 PM 30.4 °F 22.2 °F 28.4 °F 92% 29.82 in 7.0 mi SE 9.2 mph - N/A   Overcast
6:54 PM 30.7 °F 22.6 °F 28.8 °F 92% 29.81 in 5.0 mi SE 9.2 mph - N/A   Overcast
7:15 PM 30.7 °F 23.3 °F 29.1 °F 94% 29.80 in 4.0 mi SE 8.1 mph - N/A   Overcast
7:35 PM 30.7 °F 23.3 °F 29.3 °F 94% 29.78 in 5.0 mi SE 8.1 mph - N/A   Overcast
7:54 PM 30.9 °F 24.3 °F 29.3 °F 94% 29.77 in 5.0 mi ESE 6.9 mph - N/A   Overcast
8:15 PM 31.1 °F 23.7 °F 29.7 °F 94% 29.74 in 5.0 mi ESE 8.1 mph - N/A   Overcast
8:35 PM 31.1 °F 23.7 °F 30.2 °F 96% 29.72 in 4.0 mi ESE 8.1 mph - N/A   Overcast
8:54 PM 31.8 °F 23.9 °F 30.9 °F 96% 29.70 in 4.0 mi ESE 9.2 mph - N/A   Overcast
9:15 PM 32.0 °F 25.6 °F 31.1 °F 96% 29.67 in 4.0 mi ESE 6.9 mph - N/A   Overcast
9:35 PM 32.0 °F 24.2 °F 31.1 °F 96% 29.65 in 3.0 mi ESE 9.2 mph - N/A Rain Light Rain
9:54 PM 32.0 °F 24.8 °F 31.8 °F 99% 29.64 in 3.0 mi ESE 8.1 mph - N/A Rain Light Rain
10:15 PM 32.2 °F 25.8 °F 32.0 °F 99% 29.62 in 3.0 mi East 6.9 mph - N/A   Overcast
10:35 PM 32.7 °F 27.3 °F 32.0 °F 97% 29.60 in 3.0 mi East 5.8 mph - N/A   Overcast
10:54 PM 32.9 °F 27.5 °F 32.5 °F 99% 29.58 in 3.0 mi East 5.8 mph - N/A   Overcast
11:15 PM 32.9 °F 28.5 °F 32.5 °F 99% 29.57 in 3.0 mi ESE 4.6 mph - N/A   Overcast
11:34 PM 33.1 °F - 32.9 °F 99% 29.55 in 3.0 mi Calm Calm - N/A Rain Light Rain
11:55 PM 33.1 °F 28.7 °F 32.9 °F 99% 29.54 in 3.0 mi ESE 4.6 mph - N/A Rain Light Rain